WAT5288 KBAB-KLUF

Flight info

Callsign WAT5288
Flight time N/A
Altitude 39000
Route PYNUN DCT RBL J1 AVE J6 PMD J65 DECAS J212 BXK
Aircraft GLEX/M-VGDW/C

Departure

Time 2026-05-08 05:23
Airport Beale Air Force Base (KBAB)

Arrival

Time N/A
Airport Luke Air Force Base (KLUF)
Time Latitude Longitude Altitude Speed Heading
2026-05-08 05:08 39.14201 -121.43186 117 ft 0 kts 164°
2026-05-08 05:15 39.14188 -121.43183 114 ft 9 kts 176°
2026-05-08 05:16 39.14116 -121.43207 117 ft 11 kts 201°
2026-05-08 05:16 39.14057 -121.43281 115 ft 12 kts 216°
2026-05-08 05:16 39.13971 -121.43275 117 ft 13 kts 164°
2026-05-08 05:16 39.13881 -121.43243 116 ft 14 kts 164°
2026-05-08 05:17 39.13787 -121.43207 116 ft 14 kts 160°
2026-05-08 05:17 39.13691 -121.43163 116 ft 15 kts 160°
2026-05-08 05:17 39.13591 -121.43117 116 ft 16 kts 160°
2026-05-08 05:17 39.13486 -121.43070 113 ft 16 kts 161°
2026-05-08 05:18 39.13379 -121.43021 115 ft 17 kts 160°
2026-05-08 05:18 39.13268 -121.42972 113 ft 17 kts 163°
2026-05-08 05:18 39.13154 -121.42926 115 ft 17 kts 162°
2026-05-08 05:18 39.13037 -121.42877 115 ft 18 kts 159°
2026-05-08 05:19 39.12920 -121.42822 114 ft 18 kts 162°
2026-05-08 05:19 39.12798 -121.42773 114 ft 19 kts 162°
2026-05-08 05:19 39.12717 -121.42737 114 ft 19 kts 160°
2026-05-08 05:19 39.12593 -121.42682 113 ft 19 kts 162°
2026-05-08 05:20 39.12425 -121.42612 113 ft 19 kts 161°
2026-05-08 05:20 39.12297 -121.42555 113 ft 20 kts 161°
2026-05-08 05:20 39.12176 -121.42597 111 ft 19 kts 236°
2026-05-08 05:20 39.12138 -121.42704 112 ft 20 kts 247°
2026-05-08 05:21 39.12097 -121.42875 112 ft 20 kts 255°
2026-05-08 05:21 39.12131 -121.43022 113 ft 9 kts 343°
2026-05-08 05:21 39.12145 -121.43028 113 ft 1 kts 342°
2026-05-08 05:21 39.12183 -121.43044 112 ft 27 kts 341°
2026-05-08 05:22 39.12673 -121.43247 111 ft 119 kts 342°
2026-05-08 05:22 39.13677 -121.43752 237 ft 176 kts 339°
2026-05-08 05:22 39.14883 -121.44336 149 ft 193 kts 341°
2026-05-08 05:22 39.16132 -121.44855 260 ft 185 kts 341°
2026-05-08 05:23 39.17379 -121.45368 304 ft 187 kts 341°
2026-05-08 05:23 39.18615 -121.45873 408 ft 187 kts 343°
2026-05-08 05:23 39.19833 -121.46376 671 ft 175 kts 342°
2026-05-08 05:23 39.20979 -121.46859 1274 ft 180 kts 342°